Regional Weather Roundup
Issued by NWS

Home | Current Version | Previous Version | Graphics & Text | Print | Product List | Glossary On
Versions: 1 2 3 4 5 6 7 8 9 10 11 12 13 14 15 16 17 18 19 20 21 22 23 24 25 26 27 28 29 30 31 32 33 34 35 36 37 38 39 40 41 42 43 44 45 46 47 48 49 50
000
ASUS45 KABQ 182210
RWRNM
NEW MEXICO REGIONAL WEATHER ROUNDUP
NATIONAL WEATHER SERVICE ALBUQUERQUE NM
300 PM MST THU JAN 18 2018

NOTE: "FAIR" MEANS FEW OR NO CLOUDS BELOW 12,000 FEET AGL WITH NO
       SIGNIFICANT WEATHER OR OBSTRUCTIONS TO VISION.

      THIS PRODUCT IS RELEASED AS TWO VERSIONS.  ONE VERSION NEAR
      THE TOP OF THE HOUR CONTAINING PRELIMINARY DATA FROM ALBUQUERQUE
      AND OTHER STATIONS.  A FINAL VERSION WITH ADDITIONAL DATA IS
      ISSUED ABOUT 10 MINUTES AFTER THE HOUR.

NMZ501-503-504-510>518-182300-
NORTHWEST PLATEAU/NORTHCENTRAL MOUNTAINS

CITY           SKY/WX    TMP DP  RH WIND       PRES   REMARKS
FARMINGTON     FAIR      47  20  34 W12       30.20F
LOS ALAMOS     FAIR      47   7  19 SE5       30.19F
SANTA FE       FAIR      52   9  17 W10       30.15F
TAOS           FAIR      51   2  13 W6        30.20F
ANGEL FIRE     FAIR      47  -1  13 W9        30.19S

$$
NMZ402-403-502-505>509-182300-
WESTCENTRAL MOUNTAINS/SOUTHWEST MOUNTAINS

CITY           SKY/WX    TMP DP  RH WIND       PRES   REMARKS
GALLUP         FAIR      55  16  21 NW3       30.21F
GRANTS         FAIR      55  13  19 N8        30.21F
SILVER CITY    FAIR      55  16  21 S7        30.21S

$$
NMZ407-409-411-412-182300-
SOUTHERN DESERTS

CITY           SKY/WX    TMP DP  RH WIND       PRES   REMARKS
DEMING         FAIR      55  16  21 VRB3      30.20F
LAS CRUCES     FAIR      55  14  20 E5        30.21F
HOLLOMAN AFB   FAIR      53  13  20 CALM      30.21F
ALAMOGORDO     FAIR      50  12  22 CALM      30.20F
T OR C         FAIR      55  11  17 MISG      30.18F

$$
NMZ519>523-182300-
CENTRAL VALLEYS/CENTRAL HIGHLANDS

CITY           SKY/WX    TMP DP  RH WIND       PRES   REMARKS
ALBUQUERQUE    FAIR      50  13  22 SW5       30.19F
DOUBLE EAGLE   MOSUNNY   52  18  25 SW3       30.19F
MORIARTY ARPT  FAIR      58  12  16 NW12      30.16S
CLINES CORNERS FAIR      52   4  14 W18       30.16S
BELEN          FAIR      52  12  20 CALM      30.19F
SOCORRO        FAIR      53  12  19 CALM      30.19F

$$
NMZ524>526-539-540-182300-
SOUTHCENTRAL MOUNTAINS

CITY           SKY/WX    TMP DP  RH WIND       PRES   REMARKS
RUIDOSO        FAIR      50   0  12 NW10      30.20F

$$
NMZ527>531-182300-
NORTHEAST HIGHLANDS/NORTHEAST PLAINS

CITY           SKY/WX    TMP DP  RH WIND       PRES   REMARKS
LAS VEGAS      FAIR      57  -4   8 S6        30.10F
RATON          FAIR      59  -6   7 SW6       30.07S
CLAYTON        FAIR      60  -3   8 S16       30.04S

$$
NMZ532>537-182300-
EASTCENTRAL PLAINS

CITY           SKY/WX    TMP DP  RH WIND       PRES   REMARKS
TUCUMCARI      FAIR      63  10  12 SW7       30.04F
CANNON AFB     FAIR      56   9  15 SW8       30.11F
CLOVIS AIRPORT FAIR      55   9  16 SW8       30.11F

$$
NMZ028-029-538-182300-
SOUTHEAST PLAINS

CITY           SKY/WX    TMP DP  RH WIND       PRES   REMARKS
ROSWELL        FAIR      53  13  20 S16       30.13F
ARTESIA        FAIR      50  14  23 S10       30.16F
CARLSBAD       FAIR      51  14  22 SE9       30.16F
HOBBS          SUNNY     52  14  22 S10       30.17F


$$




USA.gov is the U.S. government's official web portal to all federal, state and local government web resources and services.